This is the latest recevied weather packets stored in our database for station/object 9W2GND-1. If no packets are shown the sender has not sent any weather packets the latest 10 day(s).
| Time | Temp. | Humidity | Pressure | Rain* | Wind** | Luminosity | Snow |
|---|---|---|---|---|---|---|---|
| 1778208880 | 28.89° C | 76% | 1013.7 hPa | - | - | - | - |
| 1778208821 | 28.89° C | 76% | 1013.7 hPa | - | - | - | - |
| 1778207960 | 28.89° C | 76% | 1013.7 hPa | - | - | - | - |
| 1778207921 | 28.89° C | 76% | 1013.7 hPa | - | - | - | - |
| 1778207020 | 28.33° C | 76% | 1013.7 hPa | - | - | - | - |
| 1778206120 | 28.89° C | 77% | 1013.6 hPa | - | - | - | - |
| 1778205220 | 28.89° C | 76% | 1013.4 hPa | - | - | - | - |
| 1778204320 | 28.89° C | 75% | 1013.5 hPa | - | - | - | - |
| 1778203420 | 30° C | 71% | 1013.4 hPa | - | - | - | - |
| 1778202520 | 30° C | 70% | 1012.8 hPa | - | - | - | - |
| 1778200823 | 29.44° C | 73% | 1012.7 hPa | - | - | - | - |
| 1778199923 | 29.44° C | 74% | 1012.3 hPa | - | - | - | - |
| 1778199022 | 28.89° C | 75% | 1011.9 hPa | - | - | - | - |
| 1778198122 | 28.89° C | 75% | 1011.6 hPa | - | - | - | - |
| 1778197222 | 28.89° C | 77% | 1011.7 hPa | - | - | - | - |
| 1778196322 | 28.89° C | 77% | 1011.4 hPa | - | - | - | - |
| 1778195422 | 28.89° C | 76% | 1010.9 hPa | - | - | - | - |
| 1778194522 | 28.89° C | 77% | 1010.7 hPa | - | - | - | - |
| 1778193622 | 28.33° C | 77% | 1010.8 hPa | - | - | - | - |
| 1778192769 | 28.89° C | 76% | 1010.7 hPa | - | - | - | - |
| 1778192722 | 28.89° C | 76% | 1010.7 hPa | - | - | - | - |
| 1778191822 | 28.89° C | 75% | 1010.6 hPa | - | - | - | - |
| 1778190953 | 28.89° C | 75% | 1010.5 hPa | - | - | - | - |
| 1778190921 | 28.89° C | 75% | 1010.5 hPa | - | - | - | - |
| 1778190021 | 28.89° C | 74% | 1010.3 hPa | - | - | - | - |
* Rain since midnight (hover to see other rain measurements)
** Current wind speed in m/s (hover to see current wind gust speed)